Location: Mohawk View
(42.7837°N, 73.7885°W)
Time: 13:02:13
(UTC+00:00)

Cosmos 1340 - Pass Details

Date: 17 June 2021
Orbit: 498 x 504 km, 81.2° (Epoch: 26 July)

Event Time Altitude Azimuth Distance (km) Brightness Sun altitude
Exits shadow 03:10:15 38° 216° (SW) 787 3.3 -19.5°
Maximum altitude 03:11:29 62° 281° (W) 571 3.0 -19.6°
Drops below altitude 10° 03:15:15 10° 3° (N) 1,724 6.2 -19.9°
Sets 03:17:24 0° 7° (N) 2,615 7.3 -20.0°
